RH
79 64 53 52 58 80 90 95 96 84 82 70 74 88 87 89 70 52 44 43 40 42 43 43 44 44 44 45 45 46 46 48 50 50 52 51 56 40 42 48 56 71 78
74 65 54 52 54 54 68 84 92 96 97 86 65 70 65 73 80 78 65 62 58 53 48 44 44 45 46 46 46 47 48 51 52 51 50 52 56 42 44 53 64 77 82
77 79 73 64 56 54 52 64 73 81 84 94 93 82 88 76 81 73 69 66 70 74 66 63 62 60 58 56 55 56 56 55 54 54 51 57 58 47 47 55 73 82 84
69 76 76 73 68 55 55 52 51 57 69 81 77 78 85 86 82 75 81 78 78 74 63 68 78 79 76 72 73 68 61 60 58 55 60 68 64 51 50 62 74 77 82
58 61 63 67 68 64 49 51 57 58 55 62 75 78 78 73 77 82 83 79 87 90 89 79 86 84 94 91 89 86 76 74 69 66 68 72 70 70 75 75 84 76 83
63 61 65 66 68 65 53 51 56 64 62 59 59 67 74 80 75 77 79 79 85 86 89 95 97 87 99 99 94 97 98 93 92 90 90 86 82 95 97 89 76 75 85
63 67 65 69 70 62 51 46 41 45 44 54 64 68 66 71 73 75 79 84 80 74 79 98 90 90 99 98 96 97 99 100 100 99 99 94 96 97 89 74 69 77 85
71 71 71 65 74 73 52 47 40 46 43 48 63 81 77 73 75 81 81 80 77 72 76 82 99 100 100 100 99 100 100 100 99 100 100 100 98 96 88 83 71 52 53
76 82 82 79 72 73 78 71 51 45 54 82 98 91 90 88 90 81 76 79 86 92 90 79 84 88 97 100 97 90 100 100 98 91 78 78 69 73 62 46 43 44 45
62 73 80 78 73 64 68 59 47 58 75 96 91 94 88 90 88 86 79 86 87 76 74 84 95 93 92 92 91 73 70 62 64 61 54 54 54 50 46 44 43 37 36
50 54 59 55 54 51 54 48 72 83 87 87 92 91 80 94 90 88 87 82 87 80 82 84 96 96 96 90 88 87 83 73 66 63 62 58 55 54 52 46 34 27 30
52 58 63 65 62 51 50 54 84 98 81 78 68 85 86 93 85 67 67 68 70 71 80 82 84 84 84 85 80 79 75 67 65 65 66 63 59 57 55 46 33 32 34
52 63 68 67 64 62 50 62 87 98 75 76 74 74 72 75 70 63 58 56 59 59 69 75 79 81 82 80 79 79 83 87 86 83 80 73 66 62 51 42 33 33 33
65 64 67 70 66 54 53 65 73 82 76 74 72 68 62 53 45 47 45 54 56 56 59 64 68 81 88 94 92 88 87 82 76 69 65 61 55 50 43 38 36 37 36
46 65 66 65 63 59 50 44 58 68 70 71 70 69 64 47 46 46 56 60 61 62 63 59 59 63 65 63 60 59 58 57 53 51 48 46 46 42 40 39 38 38 38
48 45 44 50 49 42 36 35 36 37 38 42 50 49 51 49 50 56 66 64 62 64 59 59 60 61 57 52 46 44 44 44 42 40 40 41 40 40 39 38 37 39 38
53 52 51 48 43 40 38 36 36 37 39 42 47 51 51 53 56 61 64 61 60 59 57 55 52 51 50 50 49 49 46 44 43 42 41 41 40 42 41 40 42 41 41
63 60 58 57 54 50 48 47 46 45 47 51 55 56 58 60 62 64 62 59 56 56 55 55 54 54 55 56 53 48 42 41 38 37 39 40 41 42 43 44 44 45 56
57 56 55 55 56 57 56 56 56 58 60 62 64 65 65 64 62 61 59 59 58 58 60 62 62 62 66 67 68 68 66 56 52 46 40 41 43 45 46 48 54 62 65
65 62 58 56 52 51 52 53 53 54 57 60 62 62 62 61 60 60 60 59 57 58 66 69 67 68 72 75 77 77 71 64 61 63 53 48 50 56 58 62 66 61 64
72 70 68 67 64 62 60 61 59 60 60 62 64 65 65 63 63 64 65 64 62 65 71 67 62 70 76 84 81 83 84 76 74 73 72 69 72 69 69 65 69 71 75
74 76 75 73 67 64 64 65 64 64 66 68 67 66 67 68 69 70 76 82 83 80 87 86 99 98 93 91 81 83 89 88 85 88 92 90 88 83 80 81 87 85 70
75 75 74 74 72 72 70 68 66 64 63 63 65 69 73 82 90 96 94 94 99 100 100 100 100 98 100 98 92 87 90 98 98 99 100 100 100 98 98 96 86 41 19
87 84 82 79 78 76 77 78 77 78 81 85 93 98 100 99 100 100 97 97 98 99 100 100 100 100 98 100 97 92 94 95 100 100 100 100 100 100 98 66 32 16 16
94 86 83 82 87 87 81 76 74 81 88 99 100 99 100 100 99 99 98 93 91 89 93 96 91 98 100 100 94 88 98 97 97 98 99 100 99 97 59 23 15 16 20
98 98 93 89 88 83 78 76 76 78 100 100 100 100 99 100 100 100 100 95 91 89 91 89 90 93 98 100 94 89 99 97 98 98 98 97 98 84 31 18 17 20 25
Wind_Speed
25 25 26 25 24 28 28 28 28 31 44 36 29 24 24 21 28 31 31 28 29 29 29 28 28 27 26 25 25 24 23 22 21 20 19 18 17 16 15 16 16 17 18
23 25 24 25 26 23 23 23 20 23 27 31 40 38 39 39 36 34 30 28 31 31 32 32 31 30 29 29 28 27 26 24 23 22 21 20 19 18 18 18 18 19 21
24 23 20 20 22 25 24 22 21 19 24 27 31 33 35 35 39 33 42 34 29 28 32 35 36 34 31 31 30 29 27 26 25 23 23 22 21 21 21 21 21 21 22
26 25 26 26 22 25 26 25 24 22 22 27 29 30 30 31 31 31 34 39 38 44 39 34 34 39 37 36 32 33 29 29 26 24 21 22 23 24 26 24 25 23 26
27 32 27 22 23 22 27 27 28 28 28 26 28 33 36 35 37 39 39 39 38 36 35 39 36 52 47 44 40 41 29 30 27 24 28 25 23 24 27 27 25 27 30
27 30 26 26 27 28 28 28 27 30 29 28 29 33 33 37 36 33 32 30 36 39 38 39 44 46 44 28 35 46 45 42 39 39 43 31 27 24 28 32 20 26 33
33 29 32 32 31 33 30 28 26 27 28 30 30 31 30 35 38 34 31 29 33 39 44 37 42 48 47 49 38 33 37 31 32 33 35 38 33 30 21 16 27 32 34
34 34 35 35 34 33 32 27 27 27 25 27 31 32 34 34 32 30 26 30 33 44 39 41 35 32 27 29 35 43 44 37 37 34 34 35 17 15 23 31 32 34 35
39 36 36 36 35 37 33 31 26 24 26 23 27 30 31 29 30 27 26 21 25 28 33 8 10 24 38 40 32 36 39 36 30 13 13 20 26 32 34 34 33 36 42
42 37 39 39 36 34 31 31 28 27 20 22 24 27 31 29 29 29 20 12 15 14 13 12 11 11 11 8 7 6 11 11 15 20 22 24 29 31 33 36 38 40 39
27 36 40 37 33 33 28 27 25 23 24 25 28 28 24 26 22 17 14 15 14 15 17 16 14 20 20 14 15 19 19 24 25 24 27 31 34 36 36 36 37 36 35
31 28 35 34 31 26 29 25 26 25 20 21 21 24 26 19 19 20 22 23 20 19 23 22 24 26 25 25 24 26 28 29 30 31 34 37 38 39 39 38 36 33 33
36 32 31 31 28 25 26 23 24 27 23 21 18 20 22 23 21 22 22 22 22 24 25 27 29 29 29 30 31 32 33 35 37 38 40 42 43 45 42 39 35 34 34
29 31 33 32 30 24 22 26 26 28 27 26 25 23 23 23 26 25 23 21 21 23 24 26 28 29 29 31 33 35 37 39 41 43 44 46 46 44 41 38 35 34 35
28 34 33 32 31 28 24 25 31 33 32 29 27 26 26 24 22 23 22 21 22 23 24 26 28 30 33 36 37 40 43 45 46 46 46 44 41 40 37 35 35 35 35
19 22 28 32 29 23 19 21 25 28 29 29 28 26 24 23 23 23 23 24 24 27 28 29 31 33 34 35 36 37 38 38 39 40 39 38 37 36 35 34 34 35 36
12 14 16 17 17 16 16 16 16 18 19 21 22 22 23 24 24 24 25 25 27 29 30 29 29 29 31 33 35 37 39 40 40 40 38 38 37 37 36 36 36 35 35
8 9 10 10 10 11 11 11 12 14 15 17 18 20 20 22 23 24 25 26 25 25 26 27 29 30 32 34 37 39 39 40 41 40 39 37 36 37 37 36 36 34 32
4 5 7 9 10 11 12 13 14 15 15 17 18 19 19 19 19 20 20 21 23 24 26 28 29 30 32 32 35 37 37 37 35 35 35 35 34 34 33 33 31 29 27
4 5 6 7 8 9 10 11 13 14 15 15 16 16 17 18 19 20 22 24 25 26 27 29 31 32 32 33 33 35 36 35 31 28 29 29 29 27 27 27 24 23 21
8 8 8 8 9 10 11 12 12 13 15 15 16 18 20 21 22 23 25 26 27 30 32 33 33 34 32 31 31 31 33 32 26 25 23 23 23 21 20 21 19 19 18
11 11 11 11 12 12 13 14 15 17 18 20 22 23 25 25 26 27 28 29 31 32 32 32 30 34 30 29 28 27 28 29 23 20 19 18 18 17 18 18 18 18 19
13 14 14 15 16 17 19 21 21 22 23 24 26 27 27 27 27 27 27 27 29 29 31 31 33 31 29 27 27 24 25 27 22 18 17 17 17 17 18 18 18 19 18
14 15 15 17 17 17 17 18 18 20 22 23 24 25 24 24 26 28 29 27 29 30 29 30 31 31 28 25 25 27 25 23 19 18 17 17 18 19 19 19 19 19 17
11 13 14 14 15 15 16 15 15 17 16 16 18 19 19 24 25 21 20 20 21 22 24 26 28 27 24 23 25 27 21 20 19 18 19 20 21 21 20 20 20 18 17
13 14 14 14 16 16 16 16 15 14 15 16 17 19 18 19 18 19 19 19 19 21 22 22 21 21 20 21 23 21 18 20 20 19 20 24 26 21 20 20 20 19 18
Wind_Direction
205 211 201 196 193 194 196 203 208 209 214 219 225 220 217 225 237 232 226 230 234 233 237 242 246 249 253 254 256 258 262 264 265 265 260 261 268 274 281 291 301 306 315
202 206 211 207 203 203 201 194 211 217 217 220 229 233 234 234 243 237 236 245 243 247 248 249 250 251 253 256 258 260 261 262 265 262 258 257 265 268 274 284 289 297 304
198 207 209 212 213 217 212 207 208 218 228 226 222 223 229 235 238 240 239 238 250 255 261 259 259 256 252 256 257 258 258 257 257 255 256 256 259 262 266 274 281 290 297
199 216 220 219 227 231 230 228 226 225 228 236 235 236 240 230 232 232 232 253 248 253 254 255 261 257 250 252 259 260 255 251 247 244 250 255 261 264 267 273 278 286 295
203 217 225 228 234 233 235 237 235 233 232 234 238 239 239 236 237 242 247 248 242 253 252 260 260 262 260 246 257 251 255 251 243 236 249 252 258 267 274 276 274 282 290
197 212 221 222 229 237 234 234 237 239 241 244 249 249 247 244 242 243 245 253 257 258 265 262 262 281 262 252 257 250 247 242 242 253 259 236 241 268 273 272 266 280 290
196 207 221 225 229 237 238 234 239 242 244 248 253 255 256 255 251 249 247 250 261 269 284 259 266 266 252 256 249 265 231 234 237 235 236 242 260 262 258 269 272 280 284
192 204 214 227 234 237 239 234 239 244 251 250 249 255 260 262 259 258 259 266 264 274 277 269 256 257 257 245 250 255 238 237 237 236 243 255 260 255 266 273 279 285 284
192 201 209 216 226 232 239 247 245 247 252 246 252 257 263 269 258 253 261 262 266 265 268 254 300 280 270 258 257 272 255 263 282 264 243 254 265 271 275 277 280 284 286
208 210 214 225 231 236 236 239 245 249 250 243 250 257 260 261 259 256 245 252 242 242 240 248 267 302 300 310 287 269 268 256 250 255 263 269 270 272 276 282 283 283 282
215 215 222 228 235 235 230 237 235 236 238 242 255 253 262 248 240 244 256 254 265 281 289 280 260 256 265 266 263 264 258 259 258 261 265 268 273 277 279 281 282 279 277
212 215 218 226 233 231 223 231 222 220 242 241 240 239 238 235 244 255 255 260 260 271 270 274 271 268 267 264 262 265 267 267 269 272 275 278 279 281 285 285 280 274 275
211 210 218 225 230 234 223 225 220 225 226 232 231 234 247 259 264 266 268 267 270 267 266 268 267 267 269 272 273 272 270 269 271 273 274 276 278 280 281 280 279 276 276
207 215 217 224 233 235 226 219 217 222 230 236 240 244 254 265 271 271 267 262 263 264 265 266 267 269 272 271 271 272 273 273 274 275 275 275 276 277 276 274 272 270 271
203 214 220 228 238 246 240 227 227 229 233 236 241 250 256 259 265 270 270 267 265 266 268 270 271 272 272 272 274 274 274 274 274 274 274 274 274 273 272 271 271 270 267
190 205 215 222 227 229 230 227 226 229 233 238 244 250 253 260 263 263 263 266 268 269 270 271 271 272 273 274 274 275 275 276 275 274 274 273 271 270 269 268 268 269 270
175 179 187 194 200 203 209 215 219 224 230 235 240 246 252 256 258 261 264 268 269 270 271 270 271 274 275 277 279 280 281 280 278 276 273 269 267 266 264 262 262 263 263
159 168 176 183 195 205 211 216 222 227 231 236 240 243 247 251 255 260 262 263 264 266 269 271 273 275 278 280 282 284 285 283 280 275 270 267 265 265 264 263 259 257 257
168 181 193 200 206 213 218 224 229 232 236 240 244 247 251 254 257 259 263 267 270 272 275 278 281 283 285 287 289 290 292 292 285 277 269 262 261 261 262 259 256 254 252
229 217 211 216 222 221 222 228 231 233 235 237 241 245 249 254 259 264 268 271 275 276 277 279 281 285 285 287 290 292 294 297 290 278 269 263 259 256 255 254 249 246 240
254 248 247 239 231 231 230 232 236 238 240 243 248 251 256 260 263 266 269 272 275 275 275 278 282 284 281 284 290 292 296 302 289 278 270 262 255 251 247 244 237 235 234
247 249 251 256 257 253 251 249 250 251 253 253 255 259 263 266 268 268 269 270 269 273 279 284 285 287 286 286 291 290 290 302 292 276 265 254 247 240 236 231 229 227 225
238 246 253 256 260 264 267 267 264 261 260 260 262 263 265 266 267 271 277 279 275 275 279 282 285 287 285 282 288 293 291 296 293 272 256 247 244 238 234 229 225 224 224
242 249 253 258 261 263 263 265 266 262 260 260 263 263 264 269 268 273 280 280 278 281 281 282 283 281 284 281 283 291 281 285 285 274 247 247 246 238 231 227 225 223 226
250 263 270 271 267 268 271 272 268 263 260 260 265 260 262 263 269 272 276 282 286 288 288 285 286 283 279 274 284 295 267 274 268 270 252 246 246 234 230 229 229 228 228
266 270 273 272 272 273 274 276 276 268 259 267 263 266 269 265 266 271 276 279 287 291 292 292 292 287 277 270 289 287 257 267 268 261 261 252 244 226 231 232 231 232 233